Weather Roundup
Issued by NWS Chicago, IL

Home | Current Version | Previous Version | Text Only | Print | Product List | Glossary Off
Versions: 1 2 3 4 5 6 7 8 9 10 11 12 13 14 15 16 17 18 19 20 21 22 23 24 25 26 27 28 29 30 31 32 33 34 35 36 37 38 39 40 41 42 43 44 45 46 47 48 49 50

000
NZUS59 KLOT 251106
HRRLOT

CHICAGO AREA WEATHER ROUNDUP
NATIONAL WEATHER SERVICE CHICAGO/ROMEOVILLE IL
600 AM CDT SAT OCT 25 2014

NOTE: "FAIR" INDICATES FEW OR NO CLOUDS BELOW 12,000 FEET WITH NO
SIGNIFICANT WEATHER AND/OR OBSTRUCTIONS TO VISIBILITY.

* THESE STATIONS ARE NOT UNDER NWS QUALITY CONTROL. THEY ALSO MAY NOT
  REPORT WEATHER SUCH AS PRECIPITATION OR FOG.

ILZ005-006-012>014-019>023-251200-
NORTHEAST ILLINOIS

CITY           SKY/WX    TMP DP  RH WIND       PRES   REMARKS
OHARE          CLOUDY    57  54  89 W8        29.91R
MIDWAY         CLOUDY    58  55  90 W14       29.92R FOG
AURORA         CLOUDY    58  54  86 W7        29.93R FOG
LANSING*       PTCLDY    49  49  98 W3        29.93R FOG
JOLIET*        CLOUDY    55  54  97 CALM      29.94R FOG
WAUKEGAN       CLEAR     55  53  93 VRB6      29.87S FOG
DUPAGE AIRPORT CLOUDY    58  54  86 W10       29.92R
WHEELING       MOCLDY    58  54  86 W7        29.91F
KANKAKEE*      CLEAR     52  50  93 W6        29.94R
MORRIS*        CLOUDY    56  56 100 NW3       29.93S FOG
LEWIS AIRPORT* CLOUDY    56  56 100 NW5       29.93S FOG
NORTHERLY IS     N/A     58  53  84 W10         N/A
$$

WIZ051-052-058>065-066-070>072-251200-
SOUTHEAST WISCONSIN

CITY           SKY/WX    TMP DP  RH WIND       PRES   REMARKS
MILWAUKEE      PTCLDY    56  52  86 W10       29.88R
KENOSHA*       CLEAR     55  53  93 W10       29.87F FOG
RACINE*        CLEAR     56  52  86 W8        29.88R FOG
BURLINGTON     CLEAR     52  52 100 W5        29.89R FOG
WAUKESHA       PTCLDY    54  52  94 W9        29.89S FOG
WEST BEND      PTCLDY    54  50  87 W6        29.86S FOG
$$

INZ001>003-010>013-019-020-251200-
NORTHWEST INDIANA

CITY           SKY/WX    TMP DP  RH WIND       PRES   REMARKS
GARY*          PTCLDY    54  52  94 CALM      29.92S FOG
MICHIGAN CITY* NOT AVBL
RENSSELAER*    NOT AVBL
VALPARAISO     PTCLDY    51  49  92 W5        29.92S FOG
$$

LMZ740>746-251200-
SOUTHERN LAKE MICHIGAN

STATION/POSITION TIME  SKY/WX   TEMP WIND        PRES    VSBY
                                AIR  DIR/SP/G
                 (UTC)          (F)  (DEG/KT/KT) (MB)    (MI)
HARRISON CRIB    1000            58  270/ 11/ 13   N/A
BURNHAM HARBOR   1100            58  280/ 10/ 14   N/A
CALUMET HARBOR   1100            57  270/  3/ 11 1011.9S
BURNS HARBOR     NOT AVBL
MICHIGAN CITY    1100            56  210/ 11/ 12   N/A
$$

ABBREVIATIONS USED IN REMARKS
   TC - TEMPERATURE IN CELSIUS
  WCI - WIND CHILL INDEX
   HX - HEAT INDEX
  VSB - VISIBILITY
$$



USA.gov is the U.S. government's official web portal to all federal, state and local government web resources and services.